Location: Austin
(30.3000°N, 97.7500°W)
Time: 11:06:38
(UTC-05:00)

ATLAS 3B R/B - Pass Details

Date: 05 September 2024
Orbit: 940 x 1254 km, 63.8° (Epoch: 11 September)

Event Time Altitude Azimuth Distance (km) Brightness Sun altitude
Rises 20:03:19 0° 343° (NNW) 4,201 6.2 -4.1°
Reaches altitude 10° 20:06:49 10° 356° (N) 3,235 5.4 -4.8°
Maximum altitude 20:12:58 25° 48° (NE) 2,298 4.1 -6.1°
Drops below altitude 10° 20:18:59 10° 100° (E) 3,154 4.5 -7.4°
Enters shadow 20:19:26 - 103° (ESE) 3,273 4.5 -7.5°
